Skip Page Navigation
NASA JPL Caltech
NASA Logo - Jet Propulsion Laboratory + View the NASA Portal
+ Center for Near-Earth Object Studies
JPL Home Earth Solar System Stars & Galaxies Technology
JPL Solar System Dynamics
BODIES ORBITS EPHEMERIDES TOOLS PHYSICAL DATA DISCOVERY FAQ SITE MAP
IMPORTANT: The SSD Announcement email list is now available. Major changes are coming in the near future, including possible hostname and/or URL changes. To be notified of such changes, subscribe to this email list.

Please visit this page for more details.


JPL Small-Body Database Browser
Search: [ help ]  
376564 (2013 PK10)
Classification: Main-belt Asteroid          SPK-ID: 2376564
Ephemeris | Orbit Diagram | Orbital Elements | Mission Design | Physical Parameters | Discovery Circumstances ]

[ show orbit diagram ]
Orbital Elements at Epoch 2459000.5 (2020-May-31.0) TDB
Reference: JPL 9 (heliocentric ecliptic J2000)
 Element Value Uncertainty (1-sigma)   Units 
e .2437774228496574 6.1916e-08  
a 2.663405714386747 3.552e-08 au
q 2.014127533330495 1.7115e-07 au
i 15.8983881754173 8.4448e-06 deg
node 188.4606309722085 2.2229e-05 deg
peri 116.0984782752209 2.9316e-05 deg
M 219.0795478808154 1.814e-05 deg
tp 2459621.978265193385
(2022-Feb-11.47826519)
8.7812e-05 TDB
period 1587.648720289338
4.35
3.176e-05
8.695e-08
d
yr
n .2267504110949634 4.536e-09 deg/d
Q 3.312683895442999 4.4179e-08 au
  Orbit Determination Parameters
   # obs. used (total)      114  
   data-arc span      4323 days (11.84 yr)  
   first obs. used      2008-03-29  
   last obs. used      2020-01-29  
   planetary ephem.      DE431  
   SB-pert. ephem.      SB431-N16  
   condition code      0  
   norm. resid. RMS      .56246  
   source      ORB  
   producer      Otto Matic  
   solution date      2020-Feb-26 02:46:43  

Additional Information
 Earth MOID = 1.05582 au 
 Jupiter MOID = 2.25134 au 
 T_jup = 3.288 
[ hide covariance matrix ]
Orbital Elements at Epoch 2457033.5 (2015-Jan-11.0) TDB
Reference: JPL 9 (heliocentric ecliptic J2000)
 Element Value Uncertainty (1-sigma)   Units 
e .2456947004100262 6.2245e-08  
q 2.007902817708932 1.7204e-07 au
tp 2456444.560909172084
(2013-Jun-01.06090917)
6.309e-05 TDB
node 188.5711114233068 2.2295e-05 deg
peri 115.6821778607057 2.915e-05 deg
i 15.87757347571084 8.4409e-06 deg
  Orbit Determination Parameters
   # obs. used (total)      114  
   data-arc span      4323 days (11.84 yr)  
   first obs. used      2008-03-29  
   last obs. used      2020-01-29  
   planetary ephem.      DE431  
   SB-pert. ephem.      SB431-N16  
   condition code      0  
   norm. resid. RMS      .56246  
   source      ORB  
   producer      Otto Matic  
   solution date      2020-Feb-26 02:46:43  

Additional Information
 Jupiter MOID = 2.25134 au 
 T_jup = 3.288 
Orbit Covariance (6×6)
  e q tp node peri i
e 3.874464927885346E-15 -1.05832300061398E-14 1.185280466150761E-12 -1.949791576251349E-15 2.551565455380395E-13 -1.38790764022586E-14
q -1.05832300061398E-14 2.959884903785483E-14 -3.249413849461291E-12 5.974736414651449E-15 -6.332773433237317E-13 4.446761934288735E-14
tp 1.185280466150761E-12 -3.249413849461291E-12 3.980289891768794E-9 -2.039689043065405E-11 1.190584688832224E-9 7.092917539376918E-12
node -1.949791576251349E-15 5.974736414651449E-15 -2.039689043065405E-11 4.970651044114645E-10 -4.845638985375439E-10 -4.964125296636857E-11
peri 2.551565455380395E-13 -6.332773433237317E-13 1.190584688832224E-9 -4.845638985375439E-10 8.497196858712418E-10 5.053367952171341E-11
i -1.38790764022586E-14 4.446761934288735E-14 7.092917539376918E-12 -4.964125296636857E-11 5.053367952171341E-11 7.124946383200612E-11

Ephemeris | Orbit Diagram | Orbital Elements | Mission Design | Physical Parameters | Discovery Circumstances ]

Physical Parameter Table
Parameter Symbol Value Units Sigma Reference Notes
absolute magnitude H 17.4   n/a MPO471857  

376564 (2013 PK10)          Discovered 2008-Mar-29 by Spacewatch at Kitt Peak
Reference: Last Updated: 2013-10-21
Ephemeris | Orbit Diagram | Orbital Elements | Mission Design | Physical Parameters | Discovery Circumstances ]
ABOUT SSD CREDITS/AWARDS PRIVACY/COPYRIGHT GLOSSARY LINKS
FirstGov 2020-Mar-29 00:12 UT
(server date/time)  
NASA Home Page
Site Manager:   Ryan S. Park
Webmaster  Alan B. Chamberlin